Berlin Schoenefeld, Germany

10:20 PM CEST am 22. Juni 2017 (GMT +0200)
Schonefeld

Wetter Verlauf für EDDB - April, 2017

Change the Weather History Date:

Freitag, April 21, 2017

  Actual Average Record
Temperature  
mittlereTemperatur 48 °F -  
Max. Temperatur 59 °F - - ()
Min.Temperatur 37 °F - - ()
Degree Days  
Heizgradtage 17    
Moisture  
Taupunkt 36 °F    
Average Humidity 63    
Maximum Humidity 87    
Minimum Humidity 45    
Niederschlag  
Niederschlag 0.02 inch - - ()
Luftdruck in Meereshöhe  
Luftdruck in Meereshöhe 30.24 inch    
Wind  
Windgeschwindigkeit 11 mph ()    
Max. Windgeschwindigkeit 21 mph    
Max Gust Speed -    
Sichtweite 6.3 Meilen    
Ereignisse Regen    
T = Trace of Precipitation, MM = Missing Value Source: Averaged Metar Reports

Daily Weather History Graph

Daily Weather History Graph

Search for Another Location

Airport or City:

Trip Planner

Search our weather history database for the weather conditions in past years. The results will help you decide how hot, cold, wet, or windy it might be!

Date:

Astronomie

Apr. 21, 2017 Aufgang Untergang
Genaue Zeit 05:55 CEST 20:15 CEST
Bürgerliche Dämmerung 05:18 CEST 20:52 CEST
Nautische Dämmerung 04:31 CEST 21:39 CEST
Astronomische Dämmerung 03:35 CEST 22:35 CEST
Mond 03:53 CEST (4/21) 13:50 CEST (4/21)
Länge des sichtbaren Lichts 15h 34m
Tageslänge
14h 19m
Letztes Viertel, 30% of the Moon is Illuminated
Apr 21
Letztes Viertel
Apr 26
Neu
Mai 3
Erstes Viertel
Mai 10
Vollmond
Mai 19
Letztes Viertel

Hourly Weather History & Observations

Zeit (CEST) Temp. Windchill Taupunkt Feuchtigkeit Druck Sichtweite Wind Dir Windgeschwindigkeit Böengeschwindigkeit Precip Ereignisse Wetterzustand
12:20 AM 41.0 °F 37.1 °F 26.6 °F 57% 30.45 inch - Südwest 5.8 mph - N/A   Heiter
12:50 AM 41.0 °F 36.4 °F 28.4 °F 61% 30.42 inch - Südwest 6.9 mph - N/A   Heiter
1:20 AM 41.0 °F 35.2 °F 28.4 °F 61% 30.42 inch - Südwest 9.2 mph - N/A   Heiter
1:50 AM 41.0 °F 35.2 °F 28.4 °F 61% 30.42 inch - Südwest 9.2 mph - N/A   Heiter
2:00 AM 41 °F - 28 °F 47% 30.43 inch 31 mi Südwest 11.2 mph - -   Teils Wolkig
2:20 AM 41.0 °F 35.2 °F 28.4 °F 61% 30.39 inch - Südwest 9.2 mph - N/A   Heiter
2:50 AM 39.2 °F 32.5 °F 28.4 °F 65% 30.39 inch - Südwest 10.4 mph - N/A   Heiter
3:20 AM 39.2 °F 33.0 °F 28.4 °F 65% 30.39 inch - Südwest 9.2 mph - N/A   Heiter
3:50 AM 39.2 °F 32.5 °F 28.4 °F 65% 30.36 inch - Südwest 10.4 mph - N/A   Heiter
4:20 AM 37.4 °F 30.8 °F 28.4 °F 70% 30.36 inch - Südwest 9.2 mph - N/A   Heiter
4:50 AM 37.4 °F 31.4 °F 28.4 °F 70% 30.36 inch 6.2 mi Südwest 8.1 mph - N/A   Wolkig
5:20 AM 37.4 °F 30.8 °F 28.4 °F 70% 30.36 inch 6.2 mi Südwest 9.2 mph - N/A   Wolkig
5:50 AM 39.2 °F 33.0 °F 28.4 °F 65% 30.33 inch 6.2 mi Südwest 9.2 mph - N/A   Wolkig
6:20 AM 41.0 °F 34.7 °F 28.4 °F 61% 30.33 inch 6.2 mi Südwest 10.4 mph - N/A   Wolkig
6:50 AM 41.0 °F 34.7 °F 30.2 °F 65% 30.33 inch 6.2 mi Südwest 10.4 mph - N/A   Wolkig
7:20 AM 41.0 °F 35.2 °F 30.2 °F 65% 30.33 inch 6.2 mi Südwest 9.2 mph - N/A   Wolkig
7:50 AM 42.8 °F 37.0 °F 30.2 °F 61% 30.30 inch - Südwest 10.4 mph - N/A   Heiter
8:20 AM 44.6 °F 38.8 °F 30.2 °F 57% 30.30 inch - West-Südwest 11.5 mph - N/A   Heiter
8:50 AM 44.6 °F 38.1 °F 32.0 °F 61% 30.30 inch - West-Südwest 13.8 mph - N/A   Heiter
9:20 AM 46.4 °F 40.4 °F 33.8 °F 62% 30.30 inch 6.2 mi West-Südwest 13.8 mph - N/A   Wolkig
9:50 AM 48.2 °F - 35.6 °F 62% 30.30 inch 6.2 mi West-Südwest 12.7 mph - N/A   Wolkig
10:20 AM 50.0 °F - 37.4 °F 62% 30.27 inch 6.2 mi West 15.0 mph - N/A   Wolkig
10:50 AM 50.0 °F - 37.4 °F 62% 30.27 inch 6.2 mi West 18.4 mph - N/A   Wolkig
11:20 AM 50.0 °F - 39.2 °F 66% 30.27 inch 6.2 mi West 17.3 mph - N/A   Wolkig
11:50 AM 51.8 °F - 39.2 °F 62% 30.27 inch 6.2 mi West 17.3 mph - N/A   Wolkig
12:20 PM 53.6 °F - 41.0 °F 62% 30.27 inch 6.2 mi West 18.4 mph - N/A   Wolkig
12:50 PM 53.6 °F - 41.0 °F 62% 30.24 inch 6.2 mi West 17.3 mph - N/A   Wolkig
1:20 PM 55.4 °F - 41.0 °F 58% 30.24 inch 6.2 mi West 17.3 mph - N/A   Wolkig
1:50 PM 57.2 °F - 42.8 °F 59% 30.21 inch 6.2 mi West 18.4 mph - N/A   Wolkig
2:00 PM 58 °F - 42 °F 45% 30.24 inch 11 mi West 20.1 mph - -   Wolkig
2:50 PM 59.0 °F - 41.0 °F 51% 30.18 inch 6.2 mi West 18.4 mph - N/A   Wolkig
3:20 PM 59.0 °F - 42.8 °F 55% 30.18 inch 6.2 mi West 18.4 mph - N/A   Wolkig
3:50 PM 59.0 °F - 41.0 °F 51% 30.15 inch 6.2 mi West 17.3 mph - N/A   Wolkig
4:20 PM 57.2 °F - 41.0 °F 55% 30.15 inch 6.2 mi West 19.6 mph - N/A   Wolkig
4:50 PM 57.2 °F - 41.0 °F 55% 30.15 inch 6.2 mi West-Südwest 15.0 mph - N/A   Wolkig
5:20 PM 57.2 °F - 41.0 °F 55% 30.12 inch 6.2 mi West-Südwest 19.6 mph - N/A   Wolkig
5:50 PM 57.2 °F - 41.0 °F 55% 30.12 inch 6.2 mi West-Südwest 18.4 mph - N/A   Wolkig
6:20 PM 57.2 °F - 39.2 °F 51% 30.09 inch 6.2 mi West-Südwest 15.0 mph - N/A   Wolkig
6:50 PM 55.4 °F - 39.2 °F 54% 30.09 inch - West-Südwest 17.3 mph - N/A   Heiter
7:20 PM 55.4 °F - 41.0 °F 58% 30.09 inch - West 17.3 mph - N/A   Heiter
7:50 PM 55.4 °F - 41.0 °F 58% 30.06 inch 6.2 mi West-Südwest 16.1 mph - N/A   Wolkig
8:20 PM 55.4 °F - 41.0 °F 58% 30.06 inch 6.2 mi West-Südwest 16.1 mph - N/A   Wolkig
8:50 PM 53.6 °F - 42.8 °F 67% 30.06 inch 6.2 mi West 18.4 mph - N/A   Wolkig
9:20 PM 51.8 °F - 46.4 °F 82% 30.06 inch 6.2 mi West 18.4 mph - N/A Regen Leichter Regen
9:50 PM 50.0 °F - 46.4 °F 87% 30.06 inch 6.2 mi West-Südwest 13.8 mph - N/A   Wolkig
10:20 PM 50.0 °F - 46.4 °F 87% 30.04 inch 6.2 mi West-Südwest 18.4 mph - N/A   Wolkig
10:50 PM 50.0 °F - 46.4 °F 87% 30.04 inch 6.2 mi West 16.1 mph - N/A   Wolkig
11:20 PM 51.8 °F - 44.6 °F 76% 30.04 inch 6.2 mi West 18.4 mph - N/A   Wolkig
11:50 PM 50.0 °F - 44.6 °F 82% 30.04 inch 6.2 mi West 20.7 mph - N/A Regen Leichter Regen